Weather in Makaryata

Russia / Kostroma Oblast     59°09′08″N   46°38′24″E
temp.,
°C
wind,
m/s
gust,
m/s
humid.,
%
clouds,
%
prec.,
mm/h
press.,
hPa
HPBL,
m
18 may, tue
tue1800:00+12ene278813 0.0 1019124
03:00+11e259191 0.0 1020102
06:00+14ese2578100 0.0 1020192
09:00+19e3460100 0.0 1020635
12:00+22ese334994 0.0 10201141
15:00+24ese334447 0.0 10191221
18:00+22ese365691 0.0 1019275
21:00+16ese38767 0.0 1019131
19 may, wed
wed1900:00+14se3107784 0.0 1019206
03:00+12se2108569 0.0 1020202
06:00+16se397458 0.0 1020275
09:00+21se4654100 0.0 1019723
12:00+24sse564348 0.0 10191344
15:00+25sse463840 0.0 10181757
18:00+23sse37495 0.0 1017442
21:00+16se39725 0.0 1018171
20 may, thu
thu2000:00+14se311795 0.0 1018225
03:00+13se3118571 0.0 1018230
06:00+16se3107396 0.0 1018310
09:00+22sse48535 0.0 1017765
12:00+25sse5840100 0.0 10161721
15:00+26sse58340 0.0 10151866
18:00+23sse59440 0.0 10141149
21:00+16se313680 0.0 1014305
21 may, fri
fri2100:00+15se313705 0.0 1014321
03:00+14se3107587 0.0 1013264
06:00+16se3107099 0.1 1012391
09:00+19sse59615 0.4 1011904
12:00+21sse61261100 0.9 10101806
15:00+19s6116911 3.1 10101465
18:00+18s611665 1.0 10091454
21:00+14ssw4107183 1.1 1010722
22 may, sat
sat2200:00+12sw51076100 0.1 10111090
03:00+11sw51182100 0.1 1012800
06:00+11sw51084100 0.0 1014952
09:00+13wsw487214 0.1 10161125
12:00+18wsw6104289 0.1 10162701
15:00+18wsw612413 0.1 10172616
18:00+17w49514 0.0 10181771
21:00+11wsw2370100 0.0 102059